Regional Weather Roundup
Issued by NWS

Home | Current Version | Previous Version | Text Only | Print | Product List | Glossary On
Versions: 1 2 3 4 5 6 7 8 9 10 11 12 13 14 15 16 17 18 19 20 21 22 23 24 25 26 27 28 29 30 31 32 33 34 35 36 37 38 39 40 41 42 43 44 45 46 47 48 49 50
000
ASUS43 KMPX 031201
RWRMN
WEATHER ROUNDUP FOR MINNESOTA
NATIONAL WEATHER SERVICE TWIN CITIES/CHANHASSEN MN
600 AM CST TUE MAR 03 2015


NOTE: "FAIR" INDICATES FEW OR NO CLOUDS BELOW 12,000 FEET WITH NO
SIGNIFICANT WEATHER AND/OR OBSTRUCTIONS TO VISIBILITY. N/A MEANS
CURRENT SKY AND/OR WEATHER CONDITIONS ARE NOT AVAILABLE.

MNZ060>063-068>070-031300-
   Twin Cities Metro

CITY           SKY/WX    TMP DP  RH WIND       PRES   REMARKS
TWIN CITIES    CLOUDY    22  13  68 SE7       29.75F WCI  13
6HR MIN TEMP:  22; 6HR MAX TEMP:  22;

ST PAUL        CLOUDY    23  14  68 SE10      29.77F WCI  12
CRYSTAL        CLOUDY    23  14  68 SE7       29.74F WCI  15
BLAINE         CLOUDY    25  16  68 SE7       29.74F WCI  17
EDEN PRAIRIE   CLOUDY    22  15  75 SE8       29.74F WCI  12
6HR MIN TEMP:  22; 6HR MAX TEMP:  23;

SOUTH ST PAUL  CLOUDY    23  15  70 SE3       29.76F
LAKE ELMO      CLOUDY    23  16  74 SE6       29.76F WCI  16
$$
MNZ001>005-007-008-013>017-022>024-027-028-031300-
   Northwest Minnesota

CITY           SKY/WX    TMP DP  RH WIND       PRES   REMARKS
BEMIDJI        LGT SNOW  23  21  91 SW5       29.63F WCI  17
HALLOCK        CLOUDY    14   7  73 NW21G30   29.76R WCI  -4
ROSEAU         CLOUDY    19  14  79 W13G20    29.66F WCI   7
WARROAD        FLURRIES  21  18  86 W10       29.64F WCI  10
THIEF RVR FALL CLOUDY    18  14  86 NW22      29.72R WCI   0
CROOKSTON      FLURRIES  19  16  86 N18G24    29.77R WCI   4
FOSSTON        LGT SNOW  19  16  86 NW17G24   29.68R WCI   4
DETROIT LAKES  LGT SNOW  27  25  93 W8        29.67S WCI  18
MOORHEAD       MIX PCPN  19  19 100 NW24      29.74R WCI   2
PARK RAPIDS    LGT SNOW  22  20  92 S7        29.63F FOG     WCI  13
MAHNOMEN       LGT SNOW  22  20  91 NW16      29.67S WCI   9
$$
MNZ006-009>011-018-025>026-031300-
   North Central Minnesota

CITY           SKY/WX    TMP DP  RH WIND       PRES   REMARKS
BAUDETTE       CLOUDY    24  17  74 W13G22    29.61F WCI  12
FLAG ISLAND    FLURRIES  21  18  86 W15       29.61R WCI   8
INTL FALLS     CLOUDY    24  16  71 SW12G20   29.60F WCI  13
6HR MIN TEMP:  23; 6HR MAX TEMP:  24;

WASKISH        FLURRIES  25  21  86 SW9       29.63F WCI  15
BIG FORK       LGT SNOW  21  19  93 S7        29.63F WCI  13
LONGVILLE      LGT SNOW  21  18  86 S6        29.66F WCI  14
GRAND RAPIDS   CLOUDY    19  16  86 S12G18    29.65F WCI   7
CRANE LAKE     CLOUDY    21  12  68 S6        29.66F WCI  14
ORR            LGT SNOW  21  14  73 S7        29.62F WCI  13
COOK           LGT SNOW  19  16  86 S5        29.66F WCI  13
WALKER         LGT SNOW  21  19  91 S6        29.64F WCI  14
$$
MNZ012-019>021-037-031300-
   Northeast Minnesota

CITY           SKY/WX    TMP DP  RH WIND       PRES   REMARKS
DULUTH         LGT SNOW  20  15  81 S13       29.71F VSB 3/4 WCI   7
6HR MIN TEMP:  19; 6HR MAX TEMP:  20; 6HR PCP:  0.05;

ELY            LGT SNOW  19  16  86 S9        29.67F WCI   9
HIBBING        LGT SNOW  19  15  84 S6        29.67F FOG     WCI  11
EVELETH        LGT SNOW  21  18  86 S6        29.68F VSB 1   WCI  14
DULUTH HARBOR  LGT SNOW  21  19  93 CALM      29.79F
TWO HARBORS    LGT SNOW  21  18  86 S5        29.72F VSB 1   WCI  15
SILVER BAY     MIX PCPN  21  18  86 CALM      29.73F
GRAND MARAIS     N/A     26  21  81 SW21      29.78F WCI  12
G MARAIS ARPRT LGT SNOW  18  12  79 S8        29.71F VSB 1   WCI   7
$$
MNZ029>031-032-039>041-046>048-054>057-064-031300-
   West Central Minnesota

CITY           SKY/WX    TMP DP  RH WIND       PRES   REMARKS
FERGUS FALLS   LGT SNOW  23  21  93 SW7       29.72S WCI  15
WHEATON        SNOW      21  21 100 W5        29.72S VSB 1/2 WCI  15
MORRIS         SNOW      23  21  93 S9        29.68F VSB 1/2 WCI  13
ALEXANDRIA     LGT SNOW  21  19  92 S9        29.67F VSB 1   WCI  11
ELBOW LAKE     LGT SNOW  22  21  96 S10       29.68S WCI  11
WADENA         LGT SNOW  19  19 100 S6        29.66F VSB 1   WCI  11
GLENWOOD       SNOW      21  19  93 S8        29.69S VSB 1/2 WCI  12
APPLETON       LGT SNOW  25  21  86 SE6       29.69F VSB 3/4 WCI  18
BENSON         LGT SNOW  21  19  93 S6        29.69F WCI  14
ORTONVILLE     LGT SNOW  23  21  93 SE3       29.68F VSB 1
MADISON        LGT SNOW  25  21  86 SE6       29.69F WCI  18
WILLMAR        LGT SNOW  23  18  80 SE9       29.70F WCI  13
$$
MNZ033>034-036-042>043-049>051-058-059-031300-
   Central Minnesota

CITY           SKY/WX    TMP DP  RH WIND       PRES   REMARKS
ST CLOUD       LGT SNOW  21  15  78 SE6       29.72F WCI  13
6HR MIN TEMP:  20; 6HR MAX TEMP:  22; 6HR PCP: TRACE;

SAUK CENTRE    LGT SNOW  20  18  93 S9        29.69F VSB 3/4 WCI   9
PAYNESVILLE    LGT SNOW  19  16  88 E7        29.70F WCI  10
AITKIN         LGT SNOW  21  16  79 S7        29.68F WCI  13
PINE RIVER     LGT SNOW  19  18  93 S7        29.70F WCI  10
BRAINERD       LGT SNOW  20  17  88 S13       29.68F VSB 1   WCI   7
STAPLES        LGT SNOW  19  18  93 S10       29.67F WCI   8
LITTLE FALLS   LGT SNOW  21  18  86 SE6       29.71F VSB 1   WCI  14
LITCHFIELD     MIX PCPN  21  19  93 SE5       29.71F WCI  15
BUFFALO        CLOUDY    22  15  72 SE5       29.74F WCI  16
MAPLE LAKE     CLOUDY    23  18  80 SE6       29.73F WCI  16
$$
MNZ037-044-045-052-053-031300-
   East Central Minnesota

CITY           SKY/WX    TMP DP  RH WIND       PRES   REMARKS
PRINCETON      CLOUDY    23  16  74 CALM      29.73F
MORA           LGT SNOW  19  14  79 CALM      29.75F
RUSH CITY      CLOUDY    20  12  71 CALM      29.76F
MOOSE LAKE     LGT SNOW  19  18  93 CALM      29.72F VSB 1
HINCKLEY       LGT SNOW  21  18  86 SE3       29.76F
CLOQUET        LGT SNOW  19  16  86 S7        29.72F WCI  10
MCGREGOR       CLOUDY    21  19  93 S10       29.70F WCI  10
$$
MNZ071>073-080-081-089-090-097-098-031300-
   Southwest Minnesota

CITY           SKY/WX    TMP DP  RH WIND       PRES   REMARKS
MONTEVIDEO     LGT SNOW  23  21  93 S6        29.69F WCI  16
GRANITE FALLS  FLURRIES  23  19  87 SE7       29.70F WCI  14
CANBY          LGT SNOW  25  22  89 CALM      29.69S
MARSHALL       CLOUDY    23  18  80 S7        29.69S WCI  15
REDWOOD FALLS  CLOUDY    23  18  81 SE9       29.69F WCI  13
OLIVIA         CLOUDY    21  19  93 SE7       29.69F WCI  13
PIPESTONE      LGT SNOW  23  19  86 CALM      29.65R VSB 1
WINDOM         LGT SNOW  23  19  86 SE7       29.67F WCI  15
WORTHINGTON    CLOUDY    23  18  80 S6        29.67F WCI  16
JACKSON        CLOUDY    25  21  86 SE7       29.67F WCI  17
TRACY          FLURRIES  25  21  85 S6        29.67F WCI  18
SLAYTON        CLOUDY    22  19  89 CALM      29.66F
$$
MNZ065>067-074>077-082>085-091>093-031300-
   South Central Minnesota

CITY           SKY/WX    TMP DP  RH WIND       PRES   REMARKS
MANKATO        CLOUDY    25  18  74 SE13      29.70F WCI  13
NEW ULM        CLOUDY    21  18  86 SE6       29.69F WCI  14
ST JAMES       CLOUDY    25  19  80 SE7       29.70F WCI  17
FAIRMONT       CLOUDY    25  18  74 SE9       29.67F WCI  15
GLENCOE        CLOUDY    24  19  84 SE6       29.72F WCI  16
FARIBAULT      CLOUDY    25  19  80 SE7       29.74F WCI  17
OWATONNA       CLOUDY    23  21  93 SE12      29.72F WCI  12
WASECA         CLOUDY    21  19  93 SE9       29.74F FOG     WCI  11
ALBERT LEA     CLOUDY    21  21 100 SE9       29.71F FOG     WCI  11
$$
MNZ078>079-086>088-094>096-031300-
   Southeast Minnesota

CITY           SKY/WX    TMP DP  RH WIND       PRES   REMARKS
ROCHESTER      FRZ RAIN  22  20  92 SE14      29.73F FOG     WCI   9
6HR MIN TEMP:  20; 6HR MAX TEMP:  22; 6HR PCP: TRACE;

RED WING       CLOUDY    25  16  68 SE7       29.77F WCI  17
STANTON        CLOUDY    25  18  74 SE6       29.74F WCI  18
DODGE CENTER   CLOUDY    21  21 100 SE13      29.71F FOG     WCI   9
WINONA         CLOUDY    27  19  74 SE7       29.81F WCI  19
AUSTIN         MIX PCPN  21  21 100 SE8       29.73F WCI  12
PRESTON        CLOUDY    21  20  96 SE10      29.75F FOG     WCI  10
$$
ABBREVIATIONS USED IN REMARKS
   TC - TEMPERATURES IN CELSIUS
  WCI - WIND CHILL INDEX
   HX - HEAT INDEX
  VSB - VISIBILITY
$$



USA.gov is the U.S. government's official web portal to all federal, state and local government web resources and services.